Location: Aranbee
(34.0885°N, 118.2342°W)
Time: 03:32:49
(UTC+00:00)

deb Explorer IX - Pass Details

Date: 03 December 2020
Orbit: 536 x 1104 km, 38.8° (Epoch: 25 January)

Event Time Altitude Azimuth Distance (km) Brightness Sun altitude
Rises 03:20:26 0° 290° (WNW) 3,366 ? -31.9°
Reaches altitude 10° 03:23:09 10° 289° (WNW) 2,333 ? -32.5°
Enters shadow 03:26:25 36° 286° (WNW) 1,147 ? -33.1°
